This is the latest recevied weather packets stored in our database for station/object K6MBY. If no packets are shown the sender has not sent any weather packets the latest 10 day(s).
| Time | Temp. | Humidity | Pressure | Rain* | Wind** | Luminosity | Snow |
|---|---|---|---|---|---|---|---|
| 1777776714 | 22.22° C | 43% | 1017 hPa | 0 mm | - | 27 W/m² | - |
| 1777776410 | 22.22° C | 43% | 1017 hPa | 0 mm | - | 30 W/m² | - |
| 1777776108 | 22.22° C | 44% | 1017.1 hPa | 0 mm | - | 34 W/m² | - |
| 1777775804 | 22.78° C | 43% | 1017.2 hPa | 0 mm | - | 37 W/m² | - |
| 1777775501 | 22.78° C | 41% | 1017.2 hPa | 0 mm | - | 40 W/m² | - |
| 1777775198 | 22.78° C | 41% | 1017.1 hPa | 0 mm | - | 51 W/m² | - |
| 1777774897 | 23.33° C | 41% | 1017.1 hPa | 0 mm | - | 45 W/m² | - |
| 1777774594 | 23.89° C | 40% | 1017.3 hPa | 0 mm | - | 55 W/m² | - |
| 1777774291 | 23.33° C | 41% | 1017.3 hPa | 0 mm | - | 72 W/m² | - |
| 1777773988 | 22.78° C | 42% | 1017.3 hPa | 0 mm | - | 80 W/m² | - |
| 1777773686 | 22.78° C | 44% | 1017.4 hPa | 0 mm | - | 89 W/m² | - |
| 1777773382 | 22.78° C | 44% | 1017.5 hPa | 0 mm | - | 98 W/m² | - |
| 1777773080 | 22.22° C | 44% | 1017.7 hPa | 0 mm | - | 109 W/m² | - |
| 1777772775 | 22.22° C | 45% | 1017.6 hPa | 0 mm | - | 117 W/m² | - |
| 1777772473 | 22.78° C | 47% | 1017.6 hPa | 0 mm | - | 132 W/m² | - |
| 1777772170 | 22.78° C | 45% | 1017.5 hPa | 0 mm | - | 144 W/m² | - |
| 1777771868 | 22.78° C | 44% | 1017.4 hPa | 0 mm | - | 156 W/m² | - |
| 1777771565 | 22.22° C | 44% | 1017.7 hPa | 0 mm | - | 170 W/m² | - |
| 1777771262 | 22.22° C | 46% | 1017.8 hPa | 0 mm | - | 184 W/m² | - |
| 1777770958 | 22.22° C | 48% | 1017.8 hPa | 0 mm | - | 198 W/m² | - |
| 1777770655 | 21.67° C | 47% | 1017.9 hPa | 0 mm | - | 213 W/m² | - |
| 1777770351 | 22.22° C | 47% | 1017.7 hPa | 0 mm | - | 228 W/m² | - |
| 1777770049 | 22.22° C | 46% | 1017.8 hPa | 0 mm | - | 243 W/m² | - |
| 1777769746 | 22.22° C | 48% | 1017.8 hPa | 0 mm | - | 259 W/m² | - |
| 1777769443 | 21.67° C | 48% | 1017.9 hPa | 0 mm | - | 273 W/m² | - |
* Rain latest hour (hover to see other rain measurements)
** Current wind speed in m/s (hover to see current wind gust speed)